User: anonymous   Login
Location: Unspecified
(0.0000°N, 0.0000°E)
Time: 07:54:28
(UTC+00:00)
Language:

COSMOS 2489 - Orbit

View from above orbital plane
View from above orbital plane
View from above satellite
View from above satellite

Ground track
Ground track

The orbit data is extracted from the following two-line orbital elements,

1 39484U 13076B   17328.41592406 +.00000012 +00000-0 +16198-4 0  9999
2 39484 082.4855 317.7221 0023481 071.9667 288.3969 12.42882246177727
Epoch (UTC): 24 November 2017 09:58:55
Eccentricity: 0.0023481
inclination: 82.4855°
perigee height: 1476 km
apogee height: 1513 km
right ascension of ascending node: 317.7221°
argument of perigee: 71.9667°
revolutions per day: 12.42882246
mean anomaly at epoch: 288.3969°
orbit number at epoch: 17772

The dashed part of the orbit path shows where the satellite is in the earth's shadow,  

DLR